Regional Weather Roundup
Issued by NWS Jackson, KY

Home | Current Version | Previous Version | Text Only | Print | Product List | Glossary Off
Versions: 1 2 3 4 5 6 7 8 9 10 11 12 13 14 15 16 17 18 19 20 21 22 23 24 25 26 27

000
ASUS43 KJKL 232210
RWRJKL

EAST KENTUCKY HOURLY WEATHER ROUNDUP
NATIONAL WEATHER SERVICE JACKSON KY
600 PM EDT TUE AUG 23 2016

NOTE: "FAIR" INDICATES FEW OR NO CLOUDS BELOW 12,000 FEET WITH
NO SIGNIFICANT WEATHER AND/OR OBSTRUCTIONS TO VISIBILITY.

* THESE REPORTS ARE NOT UNDER NWS QUALITY CONTROL AND MAY NOT
  REPORT WEATHER SUCH AS PRECIPITATION AND FOG.

KYZ079-080-083-085-087-088-110-112-115-119-120-232300
...EASTERN KENTUCKY...

CITY           SKY/WX    TMP DP  RH WIND       PRES   REMARKS
JACKSON        SUNNY     80  60  50 CALM      30.26S
LONDON         SUNNY     81  57  43 W6        30.25S
SOMERSET*      MOSUNNY   82  59  44 CALM      30.24S
MONTICELLO*    MOSUNNY  N/A N/A N/A W14       30.25R
WILLIAMSBURG*  CLEAR     82  63  51 CALM      30.24S
MIDDLESBORO*   PTSUNNY   84  61  44 W5        30.24S
HARLAN APT*    PTCLDY    82  59  44 SW3       30.26S
PIKE CO APT*     N/A     82  62  50 N3        30.26S
BIG SANDY APT* CLEAR     83  62  49 CALM      30.25S
MOREHEAD APT*  PTCLDY    82  61  47 CALM      30.26S
ASHLAND*       SUNNY     84  63  48 CALM      30.22R
$$

KYZ035-036-041-042-044-050-067-078-099-232300
...CENTRAL KENTUCKY...

CITY           SKY/WX    TMP DP  RH WIND       PRES   REMARKS
MT STERLING*   SUNNY     81  61  50 SW3       30.25S
FLEMING/MASON* SUNNY     82  59  45 S6        30.25S
DANVILLE*      PTSUNNY   81  61  50 S3        30.25R
LEXINGTON      SUNNY     82  59  45 VRB3      30.23F
FRANKFORT      SUNNY     82  58  43 SW5       30.21F
LOUISVILLE     PTSUNNY   82  59  45 S8        30.21R
LEBANON*         N/A     82  64  54 CALM      30.23S
GLASGOW*       MOSUNNY   82  63  52 CALM      30.22S
BOWLING GREEN  PTSUNNY   84  64  50 VRB3      30.20F
$$

KYZ091>093-OHZ055-061-077-WVZ005-015-034-035-042-232300
...SOUTHERN OHIO/WEST VIRGINIA...

CITY           SKY/WX    TMP DP  RH WIND       PRES   REMARKS
COVINGTON      PTSUNNY   81  61  50 S8        30.22F
COLUMBUS       MOSUNNY   80  57  45 CALM      30.24S
DAYTON         MOSUNNY   79  58  48 SE12      30.24S
WILMINGTON     SUNNY     78  61  55 S5        30.24F
HUNTINGTON     SUNNY     83  59  44 CALM      30.23F
CHARLESTON     MOSUNNY   84  60  44 W6        30.24S
PINEVILLE*     MOSUNNY   82  62  51 MISG      30.31F
BECKLEY        MOSUNNY   78  58  49 S5        30.31F
BLUEFIELD      MOSUNNY   75  58  55 CALM      30.34S
LOGAN CO APT*    N/A     81  63  54 CALM      30.25F
$$

VAZ002-007-008-TNZ017-027-036-066-071-232300
...SOUTHWEST VIRGINIA/EAST TENNESSEE...

CITY           SKY/WX    TMP DP  RH WIND       PRES   REMARKS
WISE*          MOSUNNY   79  52  38 SW7       30.33S
JONESVILLE*      N/A     84  64  51 CALM      30.27R
ABINGDON*      MOSUNNY   82  60  46 CALM      30.28F
BRISTOL        CLOUDY    86  58  38 W3        30.25S
MORRISTOWN*    CLEAR     84  63  48 VRB5      30.23S
SEVIERVILLE*   PTCLDY    86  64  48 W3        30.21S
KNOXVILLE      PTSUNNY   86  63  45 NW8       30.21S
OAK RIDGE      SUNNY     87  60  40 W7        30.23S
CROSSVILLE     SUNNY     80  63  55 W7        30.28S
NASHVILLE      CLOUDY    84  67  56 CALM      30.21S
$$

...KEY TO REMARKS...
VSB - VISIBILITY IN MILES
WCI - WIND CHILL INDEX
HX  - HEAT INDEX

$$




USA.gov is the U.S. government's official web portal to all federal, state and local government web resources and services.